[[{"header":{"parameterUnit":"m.s-1","parameterCategory":1,"la1":30.2991,"la2":30.254,"lo1":-89.0895,"lo2":-89.0444,"dy":0.0017,"dx":0.0017,"nx":28,"ny":28,"refTime":"2023-04-08T21:00:00:Z","depth":0,"parameterNumber":2,"parameterNumberName":"U-component_of_WINDS"},"data":[0,0,0,0,0,0,0,0,0,0,0,0,0,0,0,0,0,0,0,0,0,0,0,0,0,0,0,0,0,0,0,0,0,0,0,0,0,0,0,0,0,0,0,0,0,0,0,0,0,0,0,0,0,0,0,0,0,0,-3.5353,-3.5354,0,-3.5465,-3.5466,-3.5467,-3.5427,-3.5425,-3.5422,-3.542,-3.5536,-3.5541,-3.5546,0,0,0,0,0,0,0,0,0,0,0,0,0,-3.5104,-3.5109,-3.5352,-3.5354,-3.5355,-3.5464,-3.5466,-3.5467,-3.5428,-3.5425,-3.5422,-3.5419,-3.5534,-3.554,-3.5547,0,0,0,0,0,0,0,0,0,0,0,0,0,-3.5214,-3.5111,-3.5352,-3.5349,-3.5349,-3.5464,-3.5466,-3.5468,-3.5429,-3.5425,-3.5421,-3.5418,-3.5532,-3.554,-3.5548,-3.5673,0,0,-3.5573,-3.5576,0,0,0,0,0,0,0,0,-3.5208,-3.5223,-3.5348,-3.5349,-3.535,-3.5428,-3.5421,-3.5537,-3.5429,-3.5399,-3.542,-3.5416,-3.5503,-3.5513,-3.5543,-3.5678,-3.5683,-3.5573,-3.5578,-3.5582,-3.5584,0,0,0,0,0,0,0,-3.52,-3.5218,-3.5397,-3.535,-3.5351,-3.5341,-3.5353,-3.5443,-3.547,-3.5401,-3.5398,-3.5412,-3.5503,-3.5535,-3.5545,-3.5685,-3.5573,-3.558,-3.5585,-3.5588,-3.5928,-3.5932,0,0,0,0,0,0,-3.5192,-3.5212,-3.5393,-3.54,-3.5268,-3.5349,-3.5362,-3.5407,-3.5469,-3.5475,-3.5415,-3.541,-3.5523,-3.5536,-3.5549,-3.57,-3.5582,-3.5589,-3.5594,-3.5924,-3.5929,-3.5934,0,0,0,0,0,0,-3.5187,-3.5208,-3.5389,-3.5305,-3.5328,-3.5357,-3.5408,-3.5411,-3.5443,-3.548,-3.5485,-3.5443,-3.552,-3.5537,-3.5642,-3.5703,-3.5593,-3.56,-3.5919,-3.5926,-3.5932,-3.6002,0,0,0,0,0,0,-3.518,-3.5207,-3.5255,-3.5307,-3.5332,-3.548,-3.5412,-3.5416,-3.5457,-3.5451,-3.5507,-3.5513,-3.5519,-3.563,-3.565,-3.5712,-3.5607,-3.5914,-3.5922,-3.593,-3.5995,-3.601,-3.6023,0,0,0,0,0,-3.5171,-3.527,-3.5257,-3.528,-3.5393,-3.5484,-3.5499,-3.5503,-3.5462,-3.551,-3.5534,-3.5511,-3.5693,-3.5641,-3.5663,-3.5729,-3.591,-3.592,-3.5929,-3.5988,-3.6007,-3.6023,0,0,0,0,0,0,-3.5225,-3.5277,-3.5263,-3.5382,-3.5429,-3.5477,-3.5538,-3.5523,-3.5582,-3.5575,-3.5578,-3.5591,-3.5698,-3.5724,-3.5666,-3.5853,-3.5795,-3.581,-3.5833,-3.5851,-3.5865,-3.5857,-3.5613,0,0,0,0,0,-3.5251,-3.5321,-3.5362,-3.5463,-3.5487,-3.5509,-3.5549,-3.5548,-3.5597,-3.5616,-3.5648,-3.5696,-3.5764,-3.5809,-3.5873,-3.5997,-3.6009,-3.6053,-3.6068,-3.6079,-3.6092,-3.616,-3.618,-3.5965,-3.5965,-3.5964,0,0,-3.5305,-3.5342,-3.5386,-3.5475,-3.5511,-3.5583,-3.5526,-3.5605,-3.5658,-3.5628,-3.5729,-3.5754,-3.5808,-3.5923,-3.5975,-3.5947,-3.6154,-3.6091,-3.61,-3.6107,-3.6171,-3.6192,-3.621,-3.5971,-3.597,-3.5969,0,0,-3.5441,-3.5475,-3.5563,-3.5601,-3.5656,-3.5669,-3.569,-3.5741,-3.5756,-3.5857,-3.5836,-3.59,-3.6016,-3.6056,-3.6091,-3.6241,-3.6222,-3.6261,-3.6337,-3.6403,-3.642,-3.6435,-3.6489,-3.6508,-3.6274,-3.6274,-3.6274,0,-3.5501,-3.5609,-3.5611,-3.5692,-3.5731,-3.5707,-3.5796,-3.5832,-3.5905,-3.5934,-3.5901,-3.6047,-3.6082,-3.6206,-3.6242,-3.6271,-3.6296,-3.6256,-3.6417,-3.6432,-3.6446,-3.6498,-3.6518,-3.6278,-3.6278,-3.6277,-3.6277,0,-3.5681,-3.5756,-3.582,-3.5892,-3.5939,-3.6023,-3.6038,-3.6085,-3.608,-3.6097,-3.62,-3.624,-3.6313,-3.6342,-3.6338,-3.6465,-3.6446,-3.6416,-3.6358,-3.6472,-3.652,-3.654,-3.6285,-3.6283,-3.6282,-3.6281,0,0,-3.5855,-3.5926,-3.595,-3.5981,-3.604,-3.6098,-3.6181,-3.6252,-3.6292,-3.6343,-3.6414,-3.6512,-3.6484,-3.6524,-3.6524,-3.6582,-3.6698,-3.6544,-3.6545,-3.6572,-3.6842,-3.6865,-3.6888,-3.6685,-3.6689,-3.6692,-3.6837,0,-3.5996,-3.6143,-3.6146,-3.628,-3.635,-3.6327,-3.6399,-3.6443,-3.6461,-3.6522,-3.6541,-3.6612,-3.6569,-3.6593,-3.6649,-3.6672,-3.6753,-3.6662,-3.6751,-3.6754,-3.674,-3.6913,-3.6938,-3.7074,-3.6856,-3.6859,-3.6862,0,-3.6181,-3.6238,-3.6379,-3.6427,-3.6456,-3.6521,-3.6586,-3.6644,-3.6693,-3.6702,-3.6746,-3.6738,-3.6822,-3.6761,-3.6878,-3.6816,-3.6853,-3.687,-3.6875,-3.6884,-3.6816,-3.6928,-3.7117,-3.7138,-3.6891,-3.6889,-3.6887,0,-3.6295,-3.6406,-3.6505,-3.6533,-3.6592,-3.6638,-3.6664,-3.6709,-3.6751,-3.6807,-3.6835,-3.69,-3.6936,-3.6987,-3.6996,-3.695,-3.7114,-3.7053,-3.7124,-3.7124,-3.716,-3.7158,-3.7358,-3.7182,-3.7182,-3.7181,-3.7181,0,-3.6453,-3.654,-3.6557,-3.6618,-3.6715,-3.6718,-3.6814,-3.6837,-3.6877,-3.6942,-3.6925,-3.6987,-3.6994,-3.7057,-3.7065,-3.7161,-3.7177,-3.7187,-3.7188,-3.7189,-3.7188,-3.7214,-3.7205,-3.7187,-3.7186,-3.7185,-3.7184,0,-3.6597,-3.6612,-3.6718,-3.6765,-3.6778,-3.6848,-3.6887,-3.6945,-3.6961,-3.7043,-3.7063,-3.7087,-3.7161,-3.7174,-3.7261,-3.7266,-3.7381,-3.7372,-3.7364,-3.7364,-3.7434,-3.7427,-3.7659,-3.7689,-3.7492,-3.7494,-3.7496,0,-3.6698,-3.6764,-3.6817,-3.686,-3.6888,-3.6956,-3.6999,-3.7004,-3.7049,-3.7109,-3.716,-3.7231,-3.7289,-3.7408,-3.7433,-3.7499,-3.7493,-3.7569,-3.7503,-3.7501,-3.7495,-3.7491,-3.7498,-3.7582,-3.7584,-3.7586,-3.7588,0,-3.6874,-3.6878,-3.694,-3.7005,-3.7056,-3.7107,-3.7155,-3.719,-3.7202,-3.7253,-3.7328,-3.7372,-3.746,-3.7532,-3.7598,-3.7625,-3.7609,-3.7608,-3.7628,-3.763,-3.7624,-3.7629,-3.74,-3.7603,-3.7601,-3.76,-3.76,-3.7599,-3.7001,-3.7059,-3.7105,-3.7174,-3.7211,-3.7256,-3.7313,-3.7335,-3.7398,-3.747,-3.7469,-3.7551,-3.7597,-3.7684,-3.7715,-3.7779,-3.7755,-3.7784,-3.7791,-3.7799,-3.7806,-3.7612,-3.7791,-3.7791,-3.779,-3.779,-3.779,0,-3.7177,-3.7206,-3.7269,-3.7337,-3.7392,-3.737,-3.7423,-3.747,-3.7542,-3.7587,-3.7643,-3.7729,-3.7798,-3.7829,-3.7896,-3.7942,-3.7936,-3.796,-3.7957,-3.7964,-3.7823,-3.7799,-3.7963,-3.7963,-3.7963,-3.7963,-3.7963,-3.7963,-3.7276,-3.7373,-3.7382,-3.7497,-3.7525,-3.7605,-3.7637,-3.7678,-3.7714,-3.781,-3.7867,-3.7886,-3.7925,-3.7996,-3.8058,-3.8065,-3.8091,-3.8118,-3.8122,-3.7991,-3.7973,-3.7957,-3.7934,-3.8124,-3.8124,-3.8257,-3.8259,-3.8259]},{"header":{"parameterUnit":"m.s-1","parameterCategory":1,"la1":30.2991,"la2":30.254,"lo1":-89.0895,"lo2":-89.0444,"dy":0.0017,"dx":0.0017,"nx":28,"ny":28,"refTime":"2023-04-08T21:00:00:Z","depth":0,"parameterNumber":3,"parameterNumberName":"V-component_of_WINDS"},"data":[0,0,0,0,0,0,0,0,0,0,0,0,0,0,0,0,0,0,0,0,0,0,0,0,0,0,0,0,0,0,0,0,0,0,0,0,0,0,0,0,0,0,0,0,0,0,0,0,0,0,0,0,0,0,0,0,0,0,-6.6682,-6.6682,0,-6.6738,-6.6739,-6.6739,-6.6653,-6.665,-6.6647,-6.6645,-6.6698,-6.6702,-6.6706,0,0,0,0,0,0,0,0,0,0,0,0,0,-6.6495,-6.6499,-6.6682,-6.6683,-6.6683,-6.6738,-6.6739,-6.6739,-6.6654,-6.665,-6.6647,-6.6643,-6.6697,-6.6702,-6.6707,0,0,0,0,0,0,0,0,0,0,0,0,0,-6.6566,-6.65,-6.6682,-6.6647,-6.6645,-6.6738,-6.6739,-6.674,-6.6655,-6.665,-6.6646,-6.6642,-6.6695,-6.6701,-6.6707,-6.6835,0,0,-6.6727,-6.6729,0,0,0,0,0,0,0,0,-6.6562,-6.6573,-6.6652,-6.665,-6.6647,-6.6684,-6.6692,-6.6772,-6.6656,-6.6651,-6.6645,-6.6639,-6.6697,-6.6703,-6.6723,-6.6838,-6.684,-6.6727,-6.6731,-6.6734,-6.6735,0,0,0,0,0,0,0,-6.6557,-6.657,-6.6704,-6.6653,-6.665,-6.6627,-6.6632,-6.6707,-6.6698,-6.6651,-6.6645,-6.6653,-6.6695,-6.6717,-6.6723,-6.6841,-6.6727,-6.6733,-6.6736,-6.6739,-6.7062,-6.7067,0,0,0,0,0,0,-6.6557,-6.6567,-6.6702,-6.6706,-6.6593,-6.6634,-6.664,-6.6677,-6.6697,-6.6696,-6.6657,-6.6649,-6.6708,-6.6716,-6.6725,-6.6875,-6.6734,-6.674,-6.6743,-6.7057,-6.7063,-6.7068,0,0,0,0,0,0,-6.6554,-6.657,-6.67,-6.6635,-6.6649,-6.6642,-6.6684,-6.668,-6.6702,-6.6701,-6.6699,-6.6682,-6.6705,-6.6716,-6.6809,-6.6876,-6.6742,-6.6748,-6.7052,-6.7059,-6.7066,-6.7178,0,0,0,0,0,0,-6.6549,-6.657,-6.662,-6.6636,-6.6653,-6.6784,-6.6688,-6.6685,-6.6714,-6.6704,-6.6724,-6.6723,-6.6703,-6.68,-6.6815,-6.6882,-6.6753,-6.7046,-6.7055,-6.7063,-6.7168,-6.7188,-6.7205,0,0,0,0,0,-6.6542,-6.6648,-6.6623,-6.6639,-6.6716,-6.6789,-6.6798,-6.6774,-6.672,-6.6769,-6.6768,-6.6722,-6.6866,-6.681,-6.6826,-6.6897,-6.7041,-6.7052,-6.7063,-6.716,-6.7184,-6.7205,0,0,0,0,0,0,-6.6638,-6.665,-6.6621,-6.6736,-6.6762,-6.6774,-6.6835,-6.68,-6.6841,-6.683,-6.6796,-6.6801,-6.6901,-6.6907,-6.6845,-6.7021,-6.6944,-6.6959,-6.7013,-6.7036,-6.7054,-6.705,-6.6758,0,0,0,0,0,-6.6673,-6.6733,-6.6739,-6.6839,-6.6854,-6.6843,-6.6874,-6.6853,-6.6877,-6.6888,-6.6893,-6.6918,-6.6968,-6.7002,-6.7049,-6.7169,-6.7171,-6.7225,-6.7243,-6.7259,-6.7271,-6.7334,-6.7358,-6.7104,-6.7104,-6.7104,0,0,-6.6745,-6.6759,-6.6798,-6.6859,-6.6877,-6.6938,-6.6853,-6.6921,-6.6965,-6.6897,-6.6985,-6.699,-6.7015,-6.7122,-6.7169,-6.7131,-6.7342,-6.7272,-6.7285,-6.7289,-6.7347,-6.7371,-6.7393,-6.7111,-6.711,-6.7109,0,0,-6.6907,-6.6924,-6.7009,-6.7029,-6.7057,-6.7049,-6.7069,-6.7086,-6.7087,-6.7175,-6.7125,-6.7176,-6.7265,-6.7284,-6.7306,-6.7474,-6.7433,-6.749,-6.7587,-6.7648,-6.7668,-6.7686,-6.7745,-6.7766,-6.7503,-6.7503,-6.7504,0,-6.6993,-6.7084,-6.7057,-6.7129,-6.7157,-6.7099,-6.7184,-6.7204,-6.7245,-6.7265,-6.7221,-6.733,-6.7343,-6.7453,-6.7494,-6.7514,-6.7535,-6.7488,-6.7668,-6.7685,-6.7701,-6.7757,-6.7779,-6.751,-6.7509,-6.7509,-6.7508,0,-6.7187,-6.7251,-6.7316,-6.7359,-6.7394,-6.7472,-6.7455,-6.7493,-6.7469,-6.7464,-6.7553,-6.7567,-6.7615,-6.7639,-6.7616,-6.7745,-6.772,-6.7673,-6.7596,-6.7732,-6.7784,-6.7805,-6.752,-6.7517,-6.7515,-6.7514,0,0,-6.7412,-6.7438,-6.7463,-6.7481,-6.7507,-6.7555,-6.763,-6.7678,-6.771,-6.774,-6.7801,-6.7876,-6.7833,-6.7857,-6.7835,-6.7889,-6.802,-6.7835,-6.7835,-6.7868,-6.8162,-6.8198,-6.8223,-6.7993,-6.7997,-6.8001,-6.816,0,-6.7573,-6.7704,-6.7681,-6.7807,-6.7865,-6.781,-6.7875,-6.7897,-6.7895,-6.7942,-6.7938,-6.7992,-6.7931,-6.7945,-6.7996,-6.7994,-6.8079,-6.7982,-6.8048,-6.8051,-6.8043,-6.825,-6.8288,-6.8438,-6.818,-6.8184,-6.8186,0,-6.7779,-6.7817,-6.795,-6.7966,-6.7989,-6.8048,-6.8089,-6.8136,-6.8159,-6.8153,-6.8181,-6.8148,-6.822,-6.8142,-6.824,-6.8175,-6.82,-6.8203,-6.8208,-6.8213,-6.8127,-6.826,-6.8485,-6.8508,-6.8218,-6.8216,-6.8213,0,-6.7928,-6.8013,-6.8103,-6.8121,-6.8142,-6.8184,-6.8195,-6.8214,-6.8244,-6.8279,-6.8298,-6.8341,-6.8364,-6.8398,-6.8377,-6.8322,-6.8478,-6.8399,-6.8474,-6.8475,-6.8509,-6.8508,-6.8741,-6.8527,-6.8527,-6.8526,-6.8526,0,-6.811,-6.8193,-6.8171,-6.8226,-6.8316,-6.8289,-6.8378,-6.8382,-6.8399,-6.8453,-6.8408,-6.8459,-6.8429,-6.8477,-6.8461,-6.8544,-6.8555,-6.8551,-6.8546,-6.8555,-6.8556,-6.8571,-6.856,-6.8532,-6.8531,-6.853,-6.8529,0,-6.8293,-6.8282,-6.8376,-6.8388,-6.8393,-6.8459,-6.8469,-6.852,-6.8513,-6.8582,-6.8596,-6.8586,-6.864,-6.8623,-6.8681,-6.867,-6.8775,-6.8757,-6.8768,-6.8763,-6.884,-6.8833,-6.9091,-6.9123,-6.8889,-6.8891,-6.8893,0,-6.841,-6.8473,-6.8492,-6.8525,-6.854,-6.8594,-6.8624,-6.8598,-6.8632,-6.8662,-6.8709,-6.8759,-6.8798,-6.8887,-6.8884,-6.8927,-6.8909,-6.8997,-6.8915,-6.8922,-6.8909,-6.8906,-6.8911,-6.9013,-6.9015,-6.9018,-6.9019,0,-6.8618,-6.8609,-6.8656,-6.87,-6.8738,-6.8771,-6.88,-6.883,-6.8806,-6.8845,-6.89,-6.8931,-6.899,-6.904,-6.9079,-6.9088,-6.905,-6.9045,-6.9065,-6.9075,-6.9078,-6.9077,-6.8812,-6.9039,-6.9037,-6.9036,-6.9035,-6.9034,-6.8771,-6.8824,-6.8846,-6.8898,-6.8918,-6.8946,-6.8994,-6.8994,-6.904,-6.9087,-6.9068,-6.9132,-6.9151,-6.9201,-6.9215,-6.9263,-6.9229,-6.9257,-6.9265,-6.9272,-6.9281,-6.9071,-6.927,-6.9269,-6.9269,-6.9268,-6.9268,0,-6.8976,-6.8988,-6.9037,-6.9079,-6.912,-6.9082,-6.9111,-6.9148,-6.9205,-6.9227,-6.9266,-6.9329,-6.9377,-6.9378,-6.9422,-6.946,-6.9444,-6.9473,-6.9469,-6.9472,-6.931,-6.9288,-6.9485,-6.9485,-6.9485,-6.9485,-6.9485,-6.9485,-6.9088,-6.9175,-6.9169,-6.9264,-6.9273,-6.9337,-6.9357,-6.9381,-6.9399,-6.9472,-6.9512,-6.9512,-6.9525,-6.957,-6.9612,-6.9611,-6.9629,-6.9664,-6.9657,-6.9505,-6.9483,-6.9463,-6.9442,-6.9669,-6.9669,-6.9814,-6.9816,-6.9817]}]]